Weather in Stepnyaki

Russia / Samara Oblast     52°57′30″N   48°49′51″E
temp.,
°C
wind,
m/s
gust,
m/s
humid.,
%
clouds,
%
prec.,
mm/h
press.,
hPa
HPBL,
m
2 july, sat
sat201:00+10e2295100 0.0 101024
04:00+12n3495100 1.3 1010114
07:00+12nne51093100 0.8 1010315
10:00+13ne589295 1.3 1011252
13:00+22ene7105725 0.2 10101862
16:00+22ne8116643 1.0 10091219
19:00+19ne8147061 0.8 1009650
22:00+14ne35906 4.0 101082
3 july, sun
sun301:00+13nne499434 0.1 1010200
04:00+13nne3995100 0.2 1010237
07:00+15nne51090100 0.0 1009414
10:00+19nne71077100 0.6 1009672
13:00+21ne796620 1.1 10091374
16:00+22nne67655 2.4 10091295
19:00+20nne510765 0.8 1009470
22:00+16nnw3487100 0.9 101054
4 july, mon
mon401:00+14nnw379026 0.0 1010129
04:00+13nnw4995100 0.0 1009231
07:00+15n5118913 0.0 1010651
10:00+18n79630 0.0 10111391
13:00+19n7106344 0.1 10111562
16:00+20n8106459 0.2 10111544
19:00+18nne5974100 0.4 1012916
22:00+14n358342 0.4 101396
5 july, tue
tue501:00+12nnw34905 0.0 101346
04:00+11nnw34925 0.0 101451
07:00+15n37825 0.0 1015304
10:00+19nne56625 0.1 10161054
13:00+21nne5749100 0.0 10161943
16:00+22n584740 0.0 10162358
19:00+20ne24698 0.0 1016235
22:00+15ene477989 0.0 1017117
6 july, wed
wed601:00+12ene12825 0.0 101811
04:00+11nne11845 0.0 101910
07:00+14ne12755 0.0 1020163
10:00+19ene33560 0.0 1020794
13:00+21e22480 0.0 10201138
16:00+23ese11460 0.0 10191278
19:00+22sse11590 0.0 1019195
22:00+16s23660 0.0 102016